Pasco, WA

8:49 PM PST on February 08, 2016 (GMT -0800)
Tri-Cities

Weather History for KPSC - May, 2014

Change the Weather History Date:

Monday, May 19, 2014

  Actual Average Record
Temperature  
Mean Temperature 63 °F 62 °F  
Max Temperature 76 °F 76 °F 94 °F (2006)
Min Temperature 50 °F 47 °F 32 °F (2003)
Degree Days  
Heating Degree Days 2 4  
Month to date heating degree days 78 126  
Since 1 July heating degree days 5191 4950  
Cooling Degree Days 0 1  
Month to date cooling degree days 17 11  
Year to date cooling degree days 17 12  
Growing Degree Days 13 (Base 50)    
Moisture  
Dew Point 41 °F    
Average Humidity 53    
Maximum Humidity 80    
Minimum Humidity 25    
Precipitation  
Precipitation 0.00 in 0.02 in 0.22 in (1962)
Month to date precipitation 0.24 0.38  
Year to date precipitation 2.33 3.90  
Snow  
Snow 0.00 in - - ()
Snow Depth 0.00 in    
Sea Level Pressure  
Sea Level Pressure 29.91 in    
Wind  
Wind Speed 9 mph (SSW)    
Max Wind Speed 15 mph    
Max Gust Speed 20 mph    
Visibility 10 miles    
Events      
T = Trace of Precipitation, MM = Missing Value Source: NWS Daily Summary

Daily Weather History Graph

Daily Weather History Graph

Search for Another Location

Airport or City:

Trip Planner

Search our weather history database for the weather conditions in past years. The results will help you decide how hot, cold, wet, or windy it might be!

Date:

Astronomy

May. 19, 2014 Rise Set
Actual Time 5:18 AM PDT 8:27 PM PDT
Civil Twilight 4:43 AM PDT 9:03 PM PDT
Nautical Twilight 3:56 AM PDT 9:50 PM PDT
Astronomical Twilight 2:59 AM PDT 10:48 PM PDT
Moon 12:13 AM PDT (5/19) 10:28 AM PDT (5/19)
Length of Visible Light 16h 20m
Length of Day
15h 08m
Waning Gibbous, 70% of the Moon is Illuminated
May 19
Waning Gibbous
May 21
Last Quarter
May 28
New
Jun 5
First Quarter
Jun 12
Full

Hourly Weather History & Observations

Time (PDT) Temp. Dew Point Humidity Pressure Visibility Wind Dir Wind Speed Gust Speed Precip Events Conditions
12:53 AM 55.0 °F 43.0 °F 64% 29.85 in 10.0 mi SW 12.7 mph - N/A   Scattered Clouds
1:53 AM 53.1 °F 43.0 °F 69% 29.86 in 10.0 mi SW 12.7 mph - N/A   Clear
2:53 AM 51.1 °F 43.0 °F 74% 29.87 in 10.0 mi SW 10.4 mph - N/A   Clear
3:53 AM 51.1 °F 43.0 °F 74% 29.88 in 10.0 mi SSW 13.8 mph - N/A   Clear
4:53 AM 51.1 °F 43.0 °F 74% 29.89 in 10.0 mi SW 11.5 mph - N/A   Clear
6:53 AM 54.0 °F 44.1 °F 69% 29.93 in 10.0 mi South 4.6 mph - N/A   Clear
7:53 AM 57.9 °F 45.0 °F 62% 29.94 in 10.0 mi SW 9.2 mph - N/A   Clear
8:53 AM 61.0 °F 44.1 °F 54% 29.94 in 10.0 mi SSW 10.4 mph - N/A   Clear
9:53 AM 64.9 °F 41.0 °F 42% 29.94 in 10.0 mi SW 8.1 mph 18.4 mph N/A   Clear
10:53 AM 66.0 °F 41.0 °F 40% 29.94 in 10.0 mi South 8.1 mph 20.7 mph N/A   Clear
11:53 AM 68.0 °F 39.9 °F 36% 29.94 in 10.0 mi South 6.9 mph - N/A   Clear
12:53 PM 70.0 °F 39.9 °F 33% 29.94 in 10.0 mi SW 11.5 mph - N/A   Clear
1:53 PM 72.0 °F 37.9 °F 29% 29.92 in 10.0 mi SSW 8.1 mph - N/A   Clear
2:53 PM 72.0 °F 37.9 °F 29% 29.91 in 10.0 mi Variable 3.5 mph - N/A   Scattered Clouds
3:53 PM 73.9 °F 37.0 °F 26% 29.89 in 10.0 mi West 6.9 mph - N/A   Clear
4:53 PM 75.0 °F 37.9 °F 26% 29.88 in 10.0 mi WNW 4.6 mph - N/A   Clear
5:53 PM 73.9 °F 37.0 °F 26% 29.88 in 10.0 mi Calm Calm - N/A   Clear
6:53 PM 73.9 °F 37.9 °F 27% 29.88 in 10.0 mi ESE 6.9 mph - N/A   Clear
7:53 PM 72.0 °F 37.9 °F 29% 29.90 in 10.0 mi SE 8.1 mph - N/A   Clear
8:53 PM 70.0 °F 37.9 °F 31% 29.91 in 10.0 mi SSE 5.8 mph - N/A   Clear
9:53 PM 63.0 °F 39.0 °F 41% 29.92 in 10.0 mi SW 6.9 mph - N/A   Clear
11:53 PM 52.0 °F 45.0 °F 77% 29.95 in 10.0 mi Calm Calm - N/A   Clear